Wind_Speed
18 24 29 30 24 18 16 9 5 7 9 5 2 4 9 13 17 17 22 24 26 26 29 32 37 38 33 32 32 31 30 28 27 27 26 24 23 21 20 20 18 18 15
21 25 31 16 17 12 15 7 6 8 9 11 5 6 10 14 16 15 18 23 25 27 29 33 39 34 33 30 28 26 25 24 22 21 22 21 19 18 18 19 21 19 21
22 21 16 15 11 12 10 6 7 15 7 14 5 9 11 13 14 14 15 18 24 29 34 36 35 31 29 27 26 26 25 23 21 20 20 20 18 17 18 20 15 17 18
17 11 15 11 11 10 8 5 1 7 5 2 6 12 11 13 13 14 13 17 21 26 32 33 30 27 24 22 20 22 22 22 22 22 21 20 19 18 19 17 16 20 24
12 10 15 11 10 9 6 2 6 3 1 12 5 13 12 12 13 12 12 16 21 26 29 29 26 24 23 23 21 20 19 18 17 17 18 16 16 15 16 19 22 27 32
12 11 10 7 6 6 4 2 7 7 5 10 16 11 13 13 15 12 13 15 21 27 29 28 27 25 25 23 21 21 19 18 18 18 17 16 19 22 26 30 31 32 31
8 9 4 5 2 6 6 7 10 12 14 19 23 10 11 12 12 13 14 16 21 24 27 26 25 27 22 21 21 21 21 20 21 22 24 27 31 31 31 33 30 29 27
9 7 8 8 9 9 11 11 12 14 21 28 37 36 31 22 10 13 18 20 20 21 22 24 25 23 22 20 21 21 21 24 27 28 30 30 29 29 28 26 25 24 22
10 13 13 13 12 10 14 18 17 20 28 42 47 35 19 17 9 14 19 22 25 24 22 23 24 24 25 24 23 25 28 28 29 29 27 26 25 23 22 21 21 20 23
12 17 18 15 13 14 17 19 19 25 33 37 34 21 24 43 24 12 22 26 26 26 26 25 26 28 30 35 24 27 28 28 27 25 25 23 25 26 25 24 21 19 17
15 17 19 17 19 15 16 20 21 26 32 33 33 36 38 41 36 40 36 40 16 28 33 35 33 34 35 34 29 25 25 25 26 25 24 22 21 20 19 17 16 14 12
17 16 22 22 24 21 18 18 20 25 30 35 38 40 42 40 36 28 32 26 32 32 31 32 32 32 33 28 26 24 23 22 21 19 18 16 14 13 11 10 9 9 8
18 16 24 25 27 23 21 20 19 23 31 34 35 37 37 36 34 32 32 32 35 30 26 25 25 24 25 25 22 18 17 16 15 14 13 12 10 8 6 4 3 5 2
20 20 21 28 26 26 25 22 20 21 26 32 33 33 34 33 31 30 28 26 23 21 18 20 20 20 19 18 12 10 11 10 9 8 7 7 6 5 5 3 3 3 5
21 18 22 30 29 28 27 25 22 23 25 31 33 33 30 30 29 27 25 26 23 19 18 15 13 14 10 10 10 7 7 7 7 5 5 3 1 3 4 6 7 7 8
27 22 23 30 35 32 31 29 29 28 29 31 31 31 29 26 25 24 22 23 21 19 15 12 13 12 10 12 7 8 8 7 6 5 5 5 5 8 10 12 13 15 18
31 29 26 31 36 38 36 35 35 35 31 31 30 33 30 28 27 24 22 20 19 17 15 13 8 12 10 9 9 10 9 9 11 11 10 10 12 15 17 17 20 23 24
37 32 30 34 39 42 40 40 41 39 33 37 35 34 31 30 29 25 24 22 18 15 15 13 11 14 14 12 12 11 12 12 13 15 17 17 18 19 16 22 24 26 26
40 37 35 36 41 45 45 47 44 43 40 41 37 36 33 31 27 25 24 23 18 18 19 21 22 24 20 15 19 18 19 19 19 20 22 23 23 26 29 31 31 29 30
40 41 40 40 43 47 45 47 50 48 45 45 39 37 36 34 34 29 28 28 26 23 21 22 23 26 27 25 26 23 22 22 23 26 27 27 30 33 35 37 39 40 41
36 41 41 42 44 49 48 45 48 49 48 46 44 40 38 37 36 35 34 33 34 31 26 25 24 25 28 30 32 35 32 30 32 32 34 36 37 38 40 42 42 43 47
30 38 41 42 45 50 51 46 48 51 50 47 48 45 42 39 39 38 39 38 37 32 32 31 30 32 34 36 35 38 38 38 38 37 35 39 42 42 43 46 50 48 40
23 33 42 43 45 50 53 50 48 49 51 50 48 48 45 45 43 42 41 40 39 39 40 38 37 36 39 41 38 38 41 42 42 46 43 46 45 48 48 50 44 39 36
18 23 36 44 45 49 54 52 49 50 53 53 53 51 48 48 48 47 48 47 46 45 43 43 44 45 44 45 46 47 47 47 51 52 54 54 55 52 48 45 43 42 43
23 22 28 37 44 50 52 53 53 53 55 58 58 57 53 50 49 49 48 50 52 53 53 51 52 49 50 48 48 48 51 52 54 55 58 53 48 47 45 47 49 48 50
27 29 28 34 42 51 53 52 56 56 57 58 57 59 60 60 58 58 56 55 55 54 54 54 54 55 55 50 43 45 53 50 47 47 49 47 50 47 45 52 54 56 56
Wind_Direction
310 314 319 324 320 338 323 337 40 69 25 358 249 140 111 99 83 84 86 91 95 104 110 112 117 120 121 124 125 123 119 116 114 112 113 108 108 98 89 86 89 88 91
304 307 319 316 327 321 310 354 39 35 20 16 197 164 127 119 91 88 93 92 97 105 111 116 121 119 115 114 117 118 116 114 114 113 110 108 105 94 92 98 100 106 107
297 307 305 308 317 301 279 43 76 39 14 351 345 161 133 132 109 94 102 101 100 107 115 121 123 122 117 115 113 111 115 116 111 110 108 104 99 95 101 106 99 110 119
285 266 300 302 292 280 301 285 334 238 231 112 325 157 138 129 112 97 105 112 112 112 118 120 118 120 118 117 113 116 118 113 111 109 108 104 98 101 105 104 100 104 112
242 240 288 295 308 260 256 252 155 240 201 118 210 185 139 123 108 99 106 121 126 123 126 125 121 118 115 114 115 117 120 118 115 108 106 101 102 104 103 105 111 114 113
226 246 266 279 265 244 230 174 154 171 154 138 151 156 142 125 122 112 112 123 132 126 125 124 122 117 113 112 112 114 117 113 108 111 110 106 103 106 107 110 114 111 112
183 243 210 221 212 113 101 95 110 118 131 152 127 161 110 97 104 113 116 122 132 135 129 125 123 119 116 109 107 108 114 113 109 107 107 102 103 103 105 111 110 111 112
188 169 166 141 111 102 107 102 104 107 127 139 123 131 105 54 56 91 106 119 129 136 136 126 123 117 113 109 107 110 108 108 108 108 108 104 102 104 105 109 111 113 112
187 154 159 133 117 103 100 99 96 106 122 130 137 165 104 136 136 108 120 122 122 125 127 126 123 118 115 106 108 113 115 114 113 114 112 109 106 108 111 111 112 110 106
192 164 156 140 129 117 108 106 107 109 114 125 134 133 125 154 158 147 132 122 114 119 123 122 119 118 118 93 122 115 113 113 113 113 113 111 110 110 110 111 112 109 101
200 176 161 154 143 136 117 113 115 117 118 121 126 119 120 137 144 145 113 125 73 112 114 112 112 112 111 114 115 113 112 111 111 109 111 112 111 108 105 97 88 83 77
204 189 171 164 159 157 148 136 126 123 122 125 127 128 129 133 135 136 129 121 124 125 117 115 117 117 115 113 114 117 114 115 116 115 113 108 102 95 89 85 85 77 57
204 205 186 178 171 164 162 161 154 144 138 137 136 135 136 136 131 123 121 120 123 122 120 123 124 122 119 116 114 117 120 120 118 114 110 106 99 90 82 70 64 79 67
203 214 204 192 180 172 169 168 174 164 154 149 147 144 142 140 136 131 127 125 120 122 131 134 130 130 122 118 116 136 134 127 122 119 117 112 91 66 68 56 38 352 329
206 220 215 200 195 187 178 180 187 177 173 162 156 152 153 149 147 144 140 143 144 146 134 138 145 145 133 154 153 158 161 160 160 145 143 144 42 334 314 313 304 297 302
216 220 221 208 201 195 192 187 187 184 179 179 175 168 166 163 163 161 164 158 156 153 167 160 171 175 170 174 188 191 195 202 211 216 237 264 294 310 309 304 302 301 298
223 219 221 214 210 206 198 194 190 192 191 199 191 179 174 180 180 184 188 184 180 177 171 172 190 198 199 221 227 222 218 233 237 247 239 256 281 292 288 293 294 292 292
226 228 228 220 209 210 204 202 197 204 206 204 203 199 193 195 192 195 196 204 211 211 207 218 224 246 252 248 245 240 241 252 255 273 260 265 288 289 280 287 292 295 287
227 229 227 227 215 212 211 209 208 207 210 204 207 210 211 206 211 216 209 210 222 234 247 248 237 233 238 240 251 258 258 256 268 270 265 275 285 288 288 292 298 293 288
227 228 225 223 221 216 214 210 213 211 212 210 212 212 213 217 219 219 219 232 235 246 250 254 258 258 255 257 259 260 264 266 268 270 271 276 280 283 285 289 291 290 291
225 223 222 219 223 218 217 214 211 211 214 214 215 217 221 223 225 228 234 236 237 250 254 260 264 266 266 267 268 265 265 267 269 273 272 276 278 282 284 285 288 289 289
224 224 223 218 224 218 219 215 211 212 215 218 220 222 227 229 232 237 241 243 240 245 249 257 264 267 273 273 271 271 266 264 270 273 277 279 282 283 283 286 290 290 292
230 224 222 222 225 221 221 219 217 216 219 221 223 228 232 235 238 242 245 246 248 253 255 256 263 268 269 271 272 269 271 273 275 278 277 278 278 279 282 289 288 288 294
251 236 231 228 226 223 220 223 221 223 224 227 229 232 237 241 243 249 250 251 253 256 256 261 267 269 272 269 269 271 273 273 277 277 282 280 278 278 281 277 282 284 287
239 245 238 231 227 220 218 225 226 229 231 230 231 232 236 241 246 251 250 255 259 261 263 263 267 269 269 268 272 273 272 272 275 276 276 277 278 279 276 276 285 282 284
224 232 243 235 224 216 218 222 227 232 236 237 238 241 243 246 249 252 255 258 257 258 260 262 265 266 268 266 267 279 272 270 268 270 274 277 282 280 278 281 285 284 285
Height
10971 10967 10964 10960 10954 10951 10949 10946 10945 10945 10945 10946 10946 10946 10947 10945 10941 10940 10938 10934 10932 10933 10933 10933 10934 10938 10942 10945 10947 10948 10949 10950 10951 10952 10953 10955 10957 10958 10958 10959 10960 10962 10963
10970 10966 10963 10960 10956 10952 10950 10948 10948 10951 10951 10950 10949 10949 10949 10947 10946 10945 10942 10940 10939 10938 10939 10939 10941 10946 10948 10951 10952 10953 10954 10955 10956 10958 10959 10960 10961 10962 10963 10963 10964 10966 10967
10969 10966 10964 10961 10957 10953 10950 10950 10955 10958 10955 10959 10956 10954 10953 10951 10950 10949 10948 10947 10946 10946 10946 10947 10949 10952 10954 10956 10957 10958 10959 10960 10961 10962 10964 10965 10966 10967 10968 10968 10968 10969 10970
10967 10965 10964 10960 10956 10954 10950 10953 10958 10942 10941 10947 10970 10962 10959 10957 10956 10955 10954 10953 10952 10953 10953 10954 10956 10958 10960 10961 10962 10962 10963 10965 10966 10967 10968 10969 10970 10972 10972 10973 10973 10974 10975
10966 10964 10963 10960 10955 10953 10952 10953 10956 10945 10942 10955 10965 10971 10965 10962 10961 10961 10960 10959 10958 10959 10959 10960 10962 10964 10964 10965 10967 10968 10969 10970 10970 10970 10972 10973 10974 10975 10976 10976 10977 10978 10979
10964 10963 10961 10958 10956 10953 10951 10952 10957 10955 10954 10966 10977 10975 10970 10965 10963 10964 10964 10965 10965 10964 10964 10966 10967 10968 10969 10970 10971 10971 10972 10973 10974 10974 10975 10977 10977 10978 10980 10982 10983 10984 10986
10962 10961 10960 10958 10955 10953 10952 10952 10954 10957 10962 10956 10944 10948 10982 10977 10973 10970 10968 10969 10971 10972 10971 10971 10972 10972 10975 10976 10976 10976 10977 10978 10978 10979 10980 10982 10983 10984 10986 10989 10990 10992 10993
10961 10960 10959 10957 10956 10955 10955 10954 10955 10956 10958 10955 10956 10973 10976 10985 10987 10981 10978 10977 10979 10981 10980 10978 10976 10977 10979 10981 10982 10983 10984 10983 10984 10985 10987 10988 10989 10991 10993 10995 10996 10998 10999
10960 10958 10960 10958 10958 10957 10957 10957 10959 10959 10958 10959 10961 10964 10955 10989 10990 10988 10984 10980 10977 10982 10988 10987 10983 10982 10984 10988 10989 10989 10989 10989 10990 10992 10993 10994 10996 10996 10998 11000 11001 11003 11005
10959 10958 10959 10960 10960 10961 10961 10962 10963 10964 10962 10961 10960 10956 10956 10967 10975 10985 10992 10987 10986 10984 10986 10991 10990 10988 10991 11010 11001 10995 10995 10996 10997 10999 10999 11000 11001 11002 11003 11004 11006 11007 11008
10958 10959 10959 10961 10963 10964 10966 10967 10968 10969 10969 10968 10967 10967 10968 10978 10982 10988 10993 10991 11002 10998 10992 10993 10996 10995 10995 10999 10999 11001 11000 11002 11003 11004 11005 11005 11006 11007 11007 11008 11008 11009 11010
10957 10959 10959 10961 10963 10965 10969 10971 10972 10974 10975 10976 10977 10979 10982 10985 10988 10991 10984 10991 10990 10997 10999 11000 11003 11001 11000 11000 11003 11004 11005 11006 11007 11008 11008 11009 11010 11010 11011 11011 11012 11012 11012
10956 10959 10961 10962 10964 10966 10969 10973 10976 10978 10980 10982 10984 10986 10987 10988 10988 10990 10990 10991 10994 10997 11001 11007 11008 11006 11004 11004 11006 11009 11009 11010 11010 11011 11011 11011 11012 11013 11013 11014 11014 11013 11012
10954 10957 10961 10964 10965 10967 10969 10972 10977 10980 10983 10986 10988 10991 10994 10994 10995 10995 10996 10999 11000 11003 11007 11009 11009 11008 11008 11009 11008 11011 11011 11012 11012 11012 11013 11013 11013 11014 11014 11014 11013 11013 11012
10951 10954 10958 10962 10967 10968 10970 10974 10977 10981 10983 10986 10989 10992 10995 10998 10999 11000 11001 11004 11006 11008 11008 11008 11009 11009 11009 11010 11011 11011 11012 11012 11012 11013 11013 11013 11014 11014 11014 11013 11013 11012 11011
10947 10950 10954 10959 10963 10967 10969 10973 10977 10981 10984 10986 10988 10991 10994 10997 11000 11001 11002 11003 11006 11007 11007 11007 11008 11009 11009 11010 11010 11011 11012 11012 11013 11013 11013 11013 11012 11012 11012 11011 11010 11009 11008
10943 10946 10949 10953 10959 10963 10966 10970 10974 10977 10980 10984 10987 10990 10993 10994 10997 10999 11001 11002 11003 11004 11006 11007 11007 11008 11008 11009 11010 11010 11011 11011 11011 11011 11011 11011 11010 11009 11009 11008 11007 11006 11004
10937 10942 10946 10949 10953 10958 10961 10966 10969 10973 10977 10980 10984 10986 10991 10994 10995 10997 10998 11000 11002 11003 11004 11004 11005 11005 11006 11007 11008 11009 11008 11008 11009 11008 11008 11008 11007 11006 11005 11004 11003 11001 10999
10933 10936 10941 10945 10949 10952 10955 10959 10964 10968 10972 10975 10978 10981 10985 10990 10992 10994 10996 10998 11000 11001 11001 11001 11002 11003 11003 11004 11004 11004 11004 11004 11004 11003 11003 11003 11002 11000 10998 10997 10995 10993 10991
10927 10930 10935 10939 10943 10948 10951 10953 10958 10963 10967 10971 10974 10976 10980 10983 10986 10989 10992 10993 10995 10996 10997 10997 10998 10999 10999 10999 11000 10999 10999 10998 10998 10998 10997 10996 10994 10992 10991 10989 10987 10985 10983
10918 10922 10927 10933 10937 10941 10945 10949 10952 10957 10963 10967 10970 10972 10974 10978 10981 10983 10985 10987 10988 10990 10991 10992 10994 10993 10991 10992 10993 10992 10992 10991 10990 10990 10989 10988 10987 10985 10983 10980 10978 10975 10973
10911 10915 10920 10925 10928 10934 10939 10943 10946 10950 10956 10960 10965 10967 10970 10974 10976 10978 10980 10982 10982 10982 10983 10984 10986 10988 10987 10985 10985 10984 10984 10983 10982 10981 10981 10979 10978 10975 10972 10970 10967 10964 10962
10906 10907 10913 10917 10921 10926 10933 10938 10941 10945 10949 10954 10957 10961 10964 10966 10969 10971 10973 10974 10975 10975 10975 10977 10978 10980 10979 10977 10976 10977 10976 10975 10974 10969 10973 10969 10967 10964 10962 10959 10957 10954 10951
10901 10902 10905 10909 10912 10918 10925 10931 10936 10939 10942 10945 10949 10952 10955 10958 10960 10963 10965 10966 10966 10966 10968 10971 10969 10969 10969 10969 10967 10966 10965 10964 10963 10960 10958 10957 10952 10951 10950 10946 10945 10942 10940
10898 10898 10898 10900 10905 10910 10917 10924 10927 10929 10932 10936 10939 10942 10946 10949 10951 10953 10955 10955 10957 10958 10960 10960 10958 10958 10958 10958 10958 10956 10953 10952 10950 10948 10942 10944 10941 10939 10937 10936 10933 10931 10927
10890 10892 10893 10895 10897 10902 10908 10912 10915 10917 10922 10926 10930 10933 10938 10938 10939 10940 10943 10944 10943 10945 10947 10947 10946 10946 10946 10946 10947 10945 10942 10941 10938 10935 10931 10934 10930 10928 10927 10923 10920 10917 10914